This is the latest recevied weather packets stored in our database for station/object W0WC. If no packets are shown the sender has not sent any weather packets the latest 10 day(s).
| Time | Temp. | Humidity | Pressure | Rain* | Wind** | Luminosity | Snow |
|---|---|---|---|---|---|---|---|
| 1777744603 | 16.67° C | 34% | 1021.8 hPa | 0 mm | - | 802 W/m² | - |
| 1777744299 | 16.67° C | 36% | 1021.9 hPa | 0 mm | - | 800 W/m² | - |
| 1777743996 | 16.67° C | 36% | 1021.9 hPa | 0 mm | - | 797 W/m² | - |
| 1777743692 | 16.67° C | 37% | 1021.9 hPa | 0 mm | - | 795 W/m² | - |
| 1777743390 | 16.67° C | 34% | 1022 hPa | 0 mm | - | 788 W/m² | - |
| 1777743088 | 16.67° C | 36% | 1021.9 hPa | 0 mm | - | 788 W/m² | - |
| 1777742785 | 16.67° C | 37% | 1022.1 hPa | 0 mm | - | 788 W/m² | - |
| 1777742481 | 16.11° C | 35% | 1022 hPa | 0 mm | - | 783 W/m² | - |
| 1777742177 | 16.67° C | 36% | 1022.1 hPa | 0 mm | - | 776 W/m² | - |
| 1777741874 | 16.11° C | 38% | 1022.1 hPa | 0 mm | - | 772 W/m² | - |
| 1777741571 | 16.11° C | 38% | 1022.3 hPa | 0 mm | - | 764 W/m² | - |
| 1777741268 | 16.11° C | 37% | 1022.3 hPa | 0 mm | - | 759 W/m² | - |
| 1777740964 | 16.11° C | 38% | 1022.3 hPa | 0 mm | - | 752 W/m² | - |
| 1777740662 | 15.56° C | 37% | 1022.2 hPa | 0 mm | - | 743 W/m² | - |
| 1777740357 | 15.56° C | 39% | 1022.4 hPa | 0 mm | - | 737 W/m² | - |
| 1777740055 | 15.56° C | 38% | 1022.1 hPa | 0 mm | - | 729 W/m² | - |
| 1777739750 | 15.56° C | 41% | 1022.2 hPa | 0 mm | - | 720 W/m² | - |
| 1777739448 | 15.56° C | 39% | 1022.3 hPa | 0 mm | - | 712 W/m² | - |
| 1777739144 | 15.56° C | 39% | 1022.1 hPa | 0 mm | - | 701 W/m² | - |
| 1777738842 | 15° C | 42% | 1022.1 hPa | 0 mm | - | 693 W/m² | - |
| 1777738538 | 15° C | 39% | 1022.3 hPa | 0 mm | - | 683 W/m² | - |
| 1777738236 | 15° C | 40% | 1022.4 hPa | 0 mm | - | 673 W/m² | - |
| 1777737934 | 15° C | 40% | 1022.3 hPa | 0 mm | - | 662 W/m² | - |
| 1777737632 | 15° C | 38% | 1022.5 hPa | 0 mm | - | 651 W/m² | - |
| 1777737330 | 15° C | 38% | 1022.1 hPa | 0 mm | - | 640 W/m² | - |
* Rain latest hour (hover to see other rain measurements)
** Current wind speed in m/s (hover to see current wind gust speed)